Location: Carson
(33.8314°N, 118.2820°W)
Time: 13:25:38
(UTC+00:00)

Cosmos 2263 Rocket - Pass Details

Date: 23 November 2020
Orbit: 823 x 849 km, 71.0° (Epoch: 22 January)

Event Time Altitude Azimuth Distance (km) Brightness Sun altitude
Rises 12:56:47 0° 206° (SSW) 3,367 5.2 -19.9°
Reaches altitude 10° 12:59:14 10° 209° (SSW) 2,441 4.4 -19.4°
Maximum altitude 13:04:48 67° 292° (WNW) 908 2.1 -18.2°
Drops below altitude 10° 13:10:27 10° 15° (NNE) 2,470 4.6 -17.1°
Sets 13:12:56 0° 18° (NNE) 3,411 5.4 -16.6°
